User: anonymous   Login
Location: Boca de Tacagua
(10.5333°N, 66.9833°W)
Time: 11:48:59
(UTC+00:00)
Language:

XW-2B - Orbit

View from above orbital plane
View from above orbital plane
View from above satellite
View from above satellite

Ground track
Ground track

The orbit data is extracted from the following two-line orbital elements,

1 40911U 15049N   23092.17045444  .00022109  00000-0  86599-3 0  9993
2 40911  97.4939  99.9843 0013498  69.4659 354.7878 15.25722344416765
Epoch (UTC): 02 April 2023 04:05:27
Eccentricity: 0.0013498
inclination: 97.4939°
perigee height: 479 km
apogee height: 498 km
right ascension of ascending node: 99.9843°
argument of perigee: 69.4659°
revolutions per day: 15.25722344
mean anomaly at epoch: 354.7878°
orbit number at epoch: 41676

The dashed part of the orbit path shows where the satellite is in the earth's shadow,  

DLR